Weather in Boloshnevo

Russia / Ryazan Oblast     54°29′45″N   40°01′34″E
temp.,
°C
wind,
m/s
gust,
m/s
humid.,
%
clouds,
%
prec.,
mm/h
press.,
hPa
HPBL,
m
1 march, mon
mon100:00−9nne229794 0.0 102021
03:00−12n229666 0.1 102221
06:00−13nw22960 0.0 102420
09:00−10wnw11960 0.0 102527
12:00−5w349342 0.0 1025265
15:00−3wsw489366 0.0 1023394
18:00−2w51091100 0.0 1021600
21:00−1w61292100 0.1 1019482
2 march, tue
tue200:00+1w61293100 0.0 1016526
03:00+1wsw71392100 0.0 1014558
06:00+1w61394100 0.0 1011607
09:00+1w61299100 0.1 1009528
12:00+1wnw712100100 0.1 1008624
15:00+1nw6119483 0.2 1008665
18:00−1nw51188100 0.0 1008288
21:00−1nw5118897 0.1 1009521
3 march, wed
wed300:00−3nw51294100 0.1 1009396
03:00−3nw71392100 0.3 1011711
06:00−5nw6139097 0.1 1012619
09:00−6nw7129095 0.1 1014766
12:00−3nw7118090 0.0 1015939
15:00−1nw6108668 0.1 1015991
18:00−2wnw61292100 0.1 1014691
21:00−2w51192100 0.3 1015541
4 march, thu
thu400:00−3w5119295 0.2 1013482
03:00−3w6129089 0.2 1011476
06:00−3wsw61490100 0.0 1008468
09:00−1wsw91788100 0.0 1005571
12:00+1wsw91686100 0.0 10021023
15:00+1wsw71487100 0.0 10001096
18:00+1w81592100 0.0 9981059
21:000w8159398 0.1 999768
5 march, fri
fri500:00−3wnw5128599 0.3 1001405
03:00−7nw489466 0.3 1005141
06:00−9wnw34960 0.0 100855
09:00−8wnw24950 0.0 1009122
12:00−4wnw23866 0.0 1011369
15:00−3wnw238426 0.0 1012484
18:00−6w229199 0.0 101322
21:00−7w0190100 0.0 101421